Weather History for Grosseto, Italy

Change the Weather History Date:

Saturday, August 31, 2013

  Actual Average Record
Temperature  
Mean Temperature 78 °F -  
Max Temperature 91 °F 80 °F 91 °F (2008)
Min Temperature 64 °F 58 °F 51 °F (2010)
Cooling Degree Days 12    
Growing Degree Days 28 (Base 50)    
Moisture  
Dew Point 47 °F    
Average Humidity 43    
Maximum Humidity 83    
Minimum Humidity 7    
Precipitation  
Precipitation 0.00 in 0.09 in - ()
Sea Level Pressure  
Sea Level Pressure 30.03 in    
Wind  
Wind Speed 5 mph ()    
Max Wind Speed 12 mph    
Max Gust Speed -    
Visibility 19.0 miles    
Events      
Averages and records for this station are not official NWS values.
T = Trace of Precipitation, MM = Missing Value Source: Averaged Metar Reports

Daily Weather History Graph

Daily Weather History Graph

Search for Another Location

Airport:

Trip Planner

Search our weather history database for the weather conditions in past years. The results will help you decide how hot, cold, wet, or windy it might be!

Date:

Astronomy

Aug. 31, 2013 Rise Set
Actual Time 6:39 AM CEST 7:51 PM CEST
Civil Twilight 6:10 AM CEST 8:20 PM CEST
Nautical Twilight 5:35 AM CEST 8:55 PM CEST
Astronomical Twilight 4:58 AM CEST 9:32 PM CEST
Moon 1:49 AM CEST (8/31) 4:42 PM CEST (8/31)
Length of Visible Light 14h 10m
Length of Day
13h 12m
Waning Crescent, 23% of the Moon is Illuminated
Aug 31
Waning Crescent
Sep 5
New
Sep 12
First Quarter
Sep 19
Full
Sep 27
Last Quarter

Hourly Weather History & Observations

Time (CEST) Temp. Dew Point Humidity Pressure Visibility Wind Dir Wind Speed Gust Speed Precip Events Conditions
12:55 AM 69.8 °F 60.8 °F 73% 30.04 in - North - - N/A   Clear
1:55 AM 68.0 °F 62.6 °F 83% 30.04 in - NNE 5.8 mph - N/A   Clear
2:00 AM 69 °F 63 °F 74% 30.05 in 19 mi NNE 5.8 mph - -  
2:55 AM 68.0 °F 59.0 °F 73% 30.04 in - North - - N/A   Clear
3:55 AM 66.2 °F 60.8 °F 83% 30.04 in - North - - N/A   Clear
4:55 AM 64.4 °F 59.0 °F 83% 30.04 in - North - - N/A   Clear
5:55 AM 64.4 °F 59.0 °F 83% 30.04 in - North - - N/A   Clear
6:55 AM 64.4 °F 59.0 °F 83% 30.04 in - North - - N/A   Clear
7:55 AM 66.2 °F 59.0 °F 78% 30.04 in - North - - N/A   Clear
8:55 AM 73.4 °F 55.4 °F 53% 30.04 in - North - - N/A   Clear
9:55 AM 77.0 °F 48.2 °F 36% 30.06 in - North - - N/A   Clear
10:55 AM 82.4 °F 44.6 °F 26% 30.06 in - North - - N/A   Clear
11:55 AM 86.0 °F 35.6 °F 17% 30.06 in - North - - N/A   Clear
12:55 PM 87.8 °F 35.6 °F 16% 30.04 in - North - - N/A   Partly Cloudy
1:55 PM 89.6 °F 33.8 °F 14% 30.04 in - North - - N/A   Partly Cloudy
2:00 PM 89 °F 34 °F 7% 30.06 in 25 mi ENE 11.5 mph - -   Scattered Clouds
2:55 PM 91.4 °F 33.8 °F 13% 30.01 in - North - - N/A   Partly Cloudy
3:55 PM 89.6 °F 35.6 °F 15% 30.01 in - North - - N/A   Scattered Clouds
4:55 PM 89.6 °F 37.4 °F 16% 30.01 in - North - - N/A   Scattered Clouds
5:55 PM 89.6 °F 37.4 °F 16% 29.98 in - North - - N/A   Partly Cloudy
6:55 PM 87.8 °F 37.4 °F 17% 29.98 in - North - - N/A   Partly Cloudy
7:55 PM 84.2 °F 35.6 °F 18% 29.98 in - North - - N/A   Partly Cloudy
8:55 PM 78.8 °F 39.2 °F 24% 30.01 in - North - - N/A   Clear
9:55 PM 77.0 °F 41.0 °F 28% 30.04 in - North - - N/A   Clear
10:55 PM 73.4 °F 46.4 °F 38% 30.06 in - North - - N/A   Clear
11:55 PM 71.6 °F 51.8 °F 50% 30.04 in - North - - N/A   Clear